Regional Weather Roundup
Issued by NWS

Home | Current Version | Previous Version | Graphics & Text | Print | Product List | Glossary On
Versions: 1 2 3 4 5 6 7 8 9 10 11 12 13 14 15 16 17 18 19 20 21 22 23 24 25 26 27 28 29 30 31 32 33 34 35 36 37 38 39 40 41 42 43 44 45 46 47 48 49 50
000
ASUS43 KOAX 011802
RWRNE

WEATHER ROUNDUP FOR NEBRASKA
NATIONAL WEATHER SERVICE OMAHA NE
100 PM CDT WED OCT 01 2014

NOTES: SATELLITE DATA IS BEING USED TO AUGMENT CLOUD COVER ABOVE
       12000 FEET.
       "FAIR" INDICATES FEW OR NO CLOUDS BELOW 12,000 FEET WITH NO
       SIGNIFICANT WEATHER AND/OR OBSTRUCTIONS TO VISIBILITY.

  * THESE STATIONS DO NOT REPORT WEATHER SUCH AS RAIN...SNOW OR FOG.

NEZ001>004-019>022-054>056-011900-
NEBRASKA PANHANDLE

CITY           SKY/WX    TMP DP  RH WIND       PRES   REMARKS
SCOTTSBLUFF    SUNNY     63  45  51 NW8G16    29.89S
6HR MIN TEMP:  43; 6HR MAX TEMP:  63;

ALLIANCE       MOSUNNY   63  45  51 VRB3      29.87F
6HR MIN TEMP:  39; 6HR MAX TEMP:  63;

CHADRON        PTSUNNY   61  47  59 W10       29.87F
6HR MIN TEMP:  46; 6HR MAX TEMP:  61;

KIMBALL        MOSUNNY   60  37  43 NW9       29.89S
SIDNEY         MOSUNNY   64  42  44 NE5       29.89S
6HR MIN TEMP:  46; 6HR MAX TEMP:  65;

$$

NEZ057>060-069>072-079>082-011900-
SOUTHWEST NEBRASKA

CITY           SKY/WX    TMP DP  RH WIND       PRES   REMARKS
NORTH PLATTE   PTSUNNY   72  47  40 CALM      29.82S
6HR MIN TEMP:  44; 6HR MAX TEMP:  72;

IMPERIAL       MOSUNNY   68  46  45 NE8       29.84F
6HR MIN TEMP:  49; 6HR MAX TEMP:  69;

LEXINGTON      PTSUNNY   72  52  48 CALM      29.80S
MCCOOK         PTSUNNY   72  48  42 MISG      29.81F
6HR MIN TEMP:  47; 6HR MAX TEMP:  73;

OGALLALA       MOSUNNY   70  47  45 NE3       29.84F
$$

NEZ005>010-023>029-035>040-094-011900-
NORTH CENTRAL NEBRASKA

CITY           SKY/WX    TMP DP  RH WIND       PRES   REMARKS
VALENTINE      MOSUNNY   65  47  52 N7        29.83S
6HR MIN TEMP:  46; 6HR MAX TEMP:  69;

AINSWORTH      SUNNY     67  48  49 N7        29.82S
BROKEN BOW     PTSUNNY   74  49  41 E8        29.80R
6HR MIN TEMP:  51; 6HR MAX TEMP:  75;

O`NEILL        SUNNY     71  53  52 N13G18    29.79R
ORD            MOSUNNY   73  50  44 N7        29.77S
6HR MIN TEMP:  53; 6HR MAX TEMP:  74;

THEDFORD       SUNNY     70  49  46 N8        29.83F
$$

NEZ041-046>049-061>064-073>077-083>087-011900-
SOUTH CENTRAL NEBRASKA

CITY           SKY/WX    TMP DP  RH WIND       PRES   REMARKS
GRAND ISLAND   FAIR      73  58  59 CALM      29.77F
6HR MIN TEMP:  57; 6HR MAX TEMP:  74;

AURORA         FAIR      74  57  56 CALM      29.76F
HASTINGS       FAIR      75  52  44 E3        29.77F
6HR MIN TEMP:  59; 6HR MAX TEMP:  75;

HEBRON         FAIR      73  62  69 E3        29.76S
HOLDREGE       FAIR      73  50  43 CALM      29.78F
KEARNEY *      FAIR      72  55  56 SW3       29.79S
YORK           FAIR      73  63  68 SE3       29.76S
$$

NEZ011>018-030>034-042>045-011900-
NORTHEAST NEBRASKA

CITY           SKY/WX    TMP DP  RH WIND       PRES   REMARKS
NORFOLK        FAIR      75  57  53 SW6       29.75F
6HR MIN TEMP:  59; 6HR MAX TEMP:  75;

ALBION         FAIR      73  54  52 SW3       29.77S
BLAIR          FAIR      73  63  70 S8        29.75F
COLUMBUS *     FAIR      73  59  60 NW5       29.77S
FREMONT        FAIR      73  63  71 S3        29.75S
TEKAMAH        FAIR      74  62  66 S9        29.74S
6HR MIN TEMP:  60; 6HR MAX TEMP:  75;

WAYNE          FAIR      75  59  57 SW6       29.75S
$$

NEZ050>053-065>068-078-088>093-011900-
SOUTHEAST NEBRASKA

CITY           SKY/WX    TMP DP  RH WIND       PRES   REMARKS
LINCOLN        FAIR      70  63  78 E5        29.76F
6HR MIN TEMP:  62; 6HR MAX TEMP:  70;

OMAHA EPPLEY   PTSUNNY   72  63  73 SE6       29.75F
6HR MIN TEMP:  62; 6HR MAX TEMP:  72; 6HR PCP:  0.01;

BEATRICE       PTSUNNY   72  64  76 N3        29.75F
FALLS CITY     FAIR      75  65  70 SW6       29.74F
6HR MIN TEMP:  65; 6HR MAX TEMP:  75;

NEBRASKA CITY  CLOUDY    71  67  89 NW6       29.75S
PLATTSMOUTH      N/A     68  63  83 CALM      29.76S
$$

NEZ044-045-051>053-067-011900-
OMAHA AREA

CITY           SKY/WX    TMP DP  RH WIND       PRES   REMARKS
OMAHA EPPLEY   PTSUNNY   72  63  73 SE6       29.75F
6HR MIN TEMP:  62; 6HR MAX TEMP:  72; 6HR PCP:  0.01;

BLAIR          FAIR      73  63  70 S8        29.75F
FREMONT        FAIR      73  63  71 S3        29.75S
MILLARD        FAIR      71  64  77 CALM      29.75F
OFFUTT AFB     CLOUDY    70  69  96 E2        29.75S
PLATTSMOUTH      N/A     68  63  83 CALM      29.76S
WAHOO          FAIR      72  63  72 S5        29.75S
$$



USA.gov is the U.S. government's official web portal to all federal, state and local government web resources and services.